This is the latest recevied weather packets stored in our database for station/object N4CRH-13. If no packets are shown the sender has not sent any weather packets the latest 10 day(s).
| Time | Temp. | Humidity | Pressure | Rain* | Wind** | Luminosity | Snow |
|---|---|---|---|---|---|---|---|
| 1777339250 | 5° C | 93% | 1291.4 hPa | 0 mm | - | 2 W/m² | - |
| 1777338948 | 5° C | 92% | 1290.9 hPa | 0 mm | - | 2 W/m² | - |
| 1777338644 | 5.56° C | 92% | 1290.8 hPa | 0 mm | - | 2 W/m² | - |
| 1777338342 | 5.56° C | 92% | 1290.8 hPa | 0 mm | - | 5 W/m² | - |
| 1777338038 | 5.56° C | 91% | 1290.3 hPa | 0 mm | - | 11 W/m² | - |
| 1777337734 | 5.56° C | 91% | 1290.4 hPa | 1.78 mm | - | 23 W/m² | - |
| 1777337432 | 5.56° C | 91% | 1290.6 hPa | 1.27 mm | - | 42 W/m² | - |
| 1777337129 | 5.56° C | 91% | 1290.3 hPa | 0 mm | - | 45 W/m² | - |
| 1777336827 | 5.56° C | 92% | 1290.3 hPa | 0 mm | - | 32 W/m² | - |
| 1777336526 | 5.56° C | 93% | 1290.7 hPa | 0 mm | - | 42 W/m² | - |
| 1777336223 | 5° C | 92% | 1290.9 hPa | 0 mm | - | 41 W/m² | - |
| 1777335920 | 5° C | 92% | 1290.9 hPa | 0 mm | - | 12 W/m² | - |
| 1777335617 | 5° C | 91% | 1290.8 hPa | 0 mm | - | 18 W/m² | - |
| 1777335314 | 5° C | 91% | 1290.9 hPa | 0 mm | - | 23 W/m² | - |
| 1777335012 | 5° C | 91% | 1290.8 hPa | 0 mm | - | 15 W/m² | - |
| 1777334708 | 5.56° C | 91% | 1290.8 hPa | 0 mm | - | 27 W/m² | - |
| 1777334406 | 5.56° C | 90% | 1290.7 hPa | 0 mm | - | 24 W/m² | - |
| 1777334103 | 5.56° C | 89% | 1290.6 hPa | 0 mm | - | 36 W/m² | - |
| 1777333802 | 5.56° C | 89% | 1290.4 hPa | 0 mm | - | 41 W/m² | - |
| 1777333499 | 5.56° C | 90% | 1290.2 hPa | 0 mm | - | 89 W/m² | - |
| 1777333196 | 5.56° C | 89% | 1290.4 hPa | 0 mm | - | 102 W/m² | - |
| 1777332894 | 5.56° C | 89% | 1290.4 hPa | 0 mm | - | 121 W/m² | - |
| 1777332591 | 5.56° C | 91% | 1290.7 hPa | 0 mm | - | 167 W/m² | - |
| 1777332288 | 5.56° C | 91% | 1290.7 hPa | 0 mm | - | 98 W/m² | - |
| 1777331985 | 5.56° C | 90% | 1290.4 hPa | 0 mm | - | 86 W/m² | - |
* Rain latest hour (hover to see other rain measurements)
** Current wind speed in m/s (hover to see current wind gust speed)